SALSAT
1 46495U 20068K   25222.50256260  .00008012  00000-0  33839-3 0  9993
2 46495  97.8649 203.4401 0009522 313.6872  46.3573 15.23511230267955
TUBIN
1 48900U 21059X   25222.76103556  .00053779  00000-0  53045-3 0  9995
2 48900  97.6769  37.2929 0002449   7.4672 352.6623 15.65778212229750
LEDSAT
1 49069U 21073D   25222.78256609  .00120964  00000-0  99534-3 0  9992
2 49069  97.3845 307.2935 0008888 204.1012 155.9835 15.69979234221160
CUTE
1 49263U 21088D   25222.72930209  .00054115  00000-0  97213-3 0  9999
2 49263  97.4482 300.8897 0006580  20.1489 340.0020 15.49683665214041
TeikyoSat 4
1 49396U 21102B   25222.66955458  .00001747  00000-0  11782-3 0  9999
2 49396  97.4069 258.8524 0010826 282.2939  77.7077 15.07865793205906
Z-Sat
1 49399U 21102E   25222.85168072  .00004859  00000-0  26395-3 0  9994
2 49399  97.3759 262.5169 0016386 245.3348 114.6178 15.14858076206405
KOSEN 1
1 49402U 21102H   25222.85551148  .00007606  00000-0  34497-3 0  9994
2 49402  97.3660 266.4161 0014757 215.4148 144.6109 15.21006099206755
HO-113
1 50466U 21131B   25222.84368787  .00000494  00000-0  16804-3 0  9992
2 50466  98.5101 311.8927 0003218 322.1086  37.9875 14.40875784190416
SNUGLITE 2
1 52899U 22065F   25222.37461401  .00001128  00000-0  22756-3 0  9994
2 52899  98.1768   3.7771 0006331 281.3582  78.6908 14.63336592165520
UmKA 1 (RS40S)
1 57172U 23091G   25222.86431873  .00005869  00000-0  30850-3 0  9997
2 57172  97.5533 277.9306 0015757 117.2314 243.0526 15.15956766116915
CubeBel-2 (EU11S)
1 57175U 23091K   25222.85556224  .00010110  00000-0  46715-3 0  9999
2 57175  97.5532 279.4633 0013336 123.1006 237.1511 15.20304302117011
VERONIKA
1 58261U 23174F   25222.79376692  .01532958  17168-2  16047-2 0  9999
2 58261  97.4058 313.8861 0012674 258.9622 101.0236 16.10712083 98527
ENSO
1 58470U 23185J   25222.83262926  .00080217  00000-0  88393-3 0  9996
2 58470  97.3687 300.2283 0006860 204.5903 155.5029 15.62833317 94736
EIRSAT-1
1 58472U 23185L   25222.84345178  .00345254  00000-0  13251-2 0  9995
2 58472  97.3605 303.6345 0007756 226.2339 133.8291 15.86507361 94961
SONATE-2
1 59112U 24043Q   25222.81460050  .00019137  00000-0  52009-3 0  9998
2 59112  97.5211 355.3441 0009666 249.4283 110.5924 15.37562119 79894
MO-122
1 60209U 24125G   25222.55188624  .00019338  00000-0  51576-3 0  9994
2 60209  97.2724  73.5382 0016141 274.3215  85.6186 15.38050520 61476
GRBBeta
1 60237U 24128C   25222.34778874  .00004933  00000-0  36741-3 0  9999
2 60237  61.9892 224.1185 0055761  70.6468 290.0640 15.03068547 59489
Curium One
1 60242U 24128H   25222.47543783  .00008880  00000-0  60137-3 0  9999
2 60242  61.9789 221.0085 0055766  67.0583 293.6381 15.05863833 59550
ROBUSTA-3A
1 60243U 24128J   25222.49772814  .00006097  00000-0  42399-3 0  9999
2 60243  61.9861 221.9696 0055005  64.6617 296.0158 15.05353455 59548
CatSat
1 60246U 24125J   25222.52392899  .00019507  00000-0  62300-3 0  9998
2 60246  97.2536  71.9966 0040059 231.7427 128.0208 15.31711040 59462
HYPERVIEW-1G (RS66S)
1 61772U 24199AP  25222.86801050  .00023468  00000-0  63199-3 0  9993
2 61772  97.3438  91.6632 0011579 337.1155  22.9573 15.37779488 86522
AO-123
1 61781U 24199AY  25222.82954510  .00007640  00000-0  27232-3 0  9991
2 61781  97.3458  89.7881 0014874 343.7564  16.3197 15.29088465 86399
ZIMSAT 2
1 61783U 24199BA  25222.86979441  .00046487  00000-0  98375-3 0  9995
2 61783  97.3405  92.8285 0010185 332.1977  27.8726 15.44935741 89750
HADES-R (SO-124)
1 62690U 25009CK  25221.72158019  .00050889  00000-0  15868-2 0  9994
2 62690  97.4061 302.4395 0003045 212.8608 147.2445 15.33062988 31508
HYDRA-T
1 62692U 25009CM  25221.95595522  .00057909  00000-0  17812-2 0  9996
2 62692  97.4070 302.7375 0002951 206.8230 153.2861 15.33463370 31543
JINJUSat 1B
1 63210U 25052A   25222.49386259  .00012074  00000-0  53386-3 0  9997
2 63210  97.4333 115.8557 0006362 102.3500 257.8449 15.21827278 22661
NUSHSAT 1
1 63211U 25052B   25222.67422892  .00013414  00000-0  58631-3 0  9999
2 63211  97.4321 116.0536 0006319 105.6622 254.5312 15.22194888 22693
TEVEL2-4
1 63213U 25052D   25222.70096298  .00012967  00000-0  57287-3 0  9990
2 63213  97.4238 115.8586 0005315 115.5960 244.5826 15.21841434 22698
TEVEL2-5
1 63214U 25052E   25222.43950133  .00013895  00000-0  61428-3 0  9991
2 63214  97.4242 115.5975 0005284 116.4686 243.7092 15.21803922 22655
TEVEL2-6
1 63215U 25052F   25222.44327056  .00014048  00000-0  62171-3 0  9992
2 63215  97.4241 115.5946 0005290 117.2039 242.9736 15.21765147 22653
TEVEL2-1
1 63217U 25052H   25222.13466987  .00016142  00000-0  71881-3 0  9992
2 63217  97.4217 115.1956 0005183 127.9702 232.2003 15.21521263 22604
TEVEL2-3
1 63218U 25052J   25222.13488312  .00016060  00000-0  71512-3 0  9999
2 63218  97.4217 115.1972 0005212 128.2699 231.9006 15.21525267 22602
TEVEL2-2
1 63219U 25052K   25222.13528049  .00015796  00000-0  70361-3 0  9998
2 63219  97.4219 115.1959 0005180 128.4516 231.7185 15.21516064 22605
TEVEL2-9
1 63237U 25052AD  25222.44775451  .00013361  00000-0  61746-3 0  9996
2 63237  97.4281 115.3611 0009054 147.3230 212.8567 15.20264609 22639
TEVEL2-7
1 63238U 25052AE  25222.65028763  .00012436  00000-0  57618-3 0  9992
2 63238  97.4279 115.5522 0009132 146.9158 213.2650 15.20193407 22669
TEVEL2-8
1 63239U 25052AF  25222.45610583  .00013279  00000-0  61562-3 0  9997
2 63239  97.4282 115.3517 0009141 147.8310 212.3484 15.20157262 22637
HYDRA-W
1 63490U 25052BL  25222.70066186  .00029237  00000-0  11298-2 0  9999
2 63490  97.4224 116.2956 0012990 144.0871 216.1243 15.26120892 22726
HADES-ICM (SO-125)
1 63492U 25052BN  25222.67079142  .00027746  00000-0  10926-2 0  9993
2 63492  97.4231 116.1945 0012981 148.6067 211.5949 15.25503295 22712
